Regional Weather Roundup
Issued by NWS

Home | Current Version | Previous Version | Text Only | Print | Product List | Glossary On
Versions: 1 2 3 4 5 6 7 8 9 10 11 12 13 14 15 16 17 18 19 20 21 22 23 24 25 26 27 28 29 30 31 32 33 34 35 36 37 38 39 40 41 42 43 44 45 46 47 48 49 50
674
ASUS44 KEWX 070111
RWRTX
SOUTH TEXAS REGIONAL WEATHER ROUNDUP
NATIONAL WEATHER SERVICE AUSTIN/SAN ANTONIO TX
800 PM CDT FRI MAY 06 2016

NOTE: "FAIR" INDICATED FEW OR NO CLOUDS BELOW 12,000 FEET WITH NO
SIGNIFICANT WEATHER AND/OR OBSTRUCTIONS TO VISIBILITY.

* - THESE STATIONS ARE NOT NWS OR FAA STATIONS...AND ARE NOT SUBJECT
    TO NWS AND FAA QUALITY CONTROL.

TXZ171-172-183>190-070200-
TEXAS HILL COUNTRY AND EDWARDS PLATEAU

CITY           SKY/WX    TMP DP  RH WIND       PRES   REMARKS
JUNCTION       CLEAR     81  45  28 SE12      29.97S
*LLANO         CLEAR     79  48  34 SE6       30.01S
BURNET         CLEAR     77  49  37 E3        30.02S
*HORSESHOE BAY CLEAR     79  49  34 SE5       30.00R
*KERRVILLE     CLEAR     76  51  40 E8        30.00S
*FREDERICKSBRG CLEAR     75  47  36 SE5       30.00F
*ROCKSPRINGS   CLEAR     79  48  34 SE13G21   30.01S HAZE
*BOERNE STAGE  CLEAR     75  46  35 SE6       30.01S
*CASTROVILLE   CLEAR     80  46  29 E6        29.98S
HONDO          CLEAR     82  47  29 E10       29.98R
*UVALDE        CLEAR     82  48  30 E9        29.94S
DEL RIO        CLEAR     86  41  20 SE13      29.87F
LAUGHLIN AFB   CLEAR     86  42  21 SE13      29.89S
CARRIZO SPRGS  CLEAR     88  41  19 SE8       29.89R
*EAGLE PASS    CLEAR     86  37  17 SE9G15    29.89S
$$

TXZ173-191>194-202-209-217>225-228-070200-
CENTRAL AND SOUTH CENTRAL TEXAS

CITY           SKY/WX    TMP DP  RH WIND       PRES   REMARKS
GEORGETOWN     CLEAR     79  48  34 E5        29.99S
AUSTIN/BERGSTM CLEAR     77  53  43 SE5       29.98S
AUSTIN/MABRY   CLEAR     78  51  38 SE6       29.99F
*AUSTIN/EXEC   CLEAR     73  55  53 SE7       29.99S
*LAGO VISTA    CLEAR     77  49  37 SE5       30.01S
SAN MARCOS     CLEAR     75  55  50 SE7       29.99S
NEW BRAUNFELS  CLEAR     78  52  40 E6        29.97S
RANDOLPH AFB   NOT AVBL
PT SAN ANTONIO CLEAR     81  47  30 E9        29.96S
SAN ANTONIO    CLEAR     79  49  34 E12       29.98S
STINSON FIELD  CLEAR     82  49  31 E7        29.95S
*PLEASANTON    CLEAR     83  44  25 E6        29.96R
*LA GRANGE       N/A     77  59  53 CALM      29.97S
*GIDDINGS      CLEAR     76  54  46 E3        30.03S
*GONZALES      CLEAR     78  55  44 E3        29.97S
$$

TXZ163>164-176>182-195>201-210>213-226-227-235-070200-
SOUTHEAST TEXAS

CITY           SKY/WX    TMP DP  RH WIND       PRES   REMARKS
COLLEGE STN    CLEAR     78  55  44 S5        29.99S
*BRYAN         CLEAR     76  58  53 CALM      30.00S
*CALDWELL      CLEAR     75  54  46 CALM      30.02S
*CROCKETT      PTCLDY    72  63  73 CALM      30.02S
*BRENHAM       CLEAR     79  52  39 CALM      30.00S
HUNTSVILLE     CLEAR     76  55  48 CALM      29.99S
CONROE         CLEAR     71  61  70 CALM      29.99S
HOUSTON BUSH   CLEAR     73  54  51 SE8       29.99S
HOUSTON HOBBY  CLEAR     74  51  44 S6        29.99R
*HOUSTON SW AP CLEAR     72  53  51 SE3       30.01R
PEARLAND       CLEAR     76  51  41 S6        30.01S
HOUSTON HOOKS  CLEAR     78  53  41 E3        29.99S
ELLINGTON FLD  CLEAR     77  50  38 SE8       30.02
SUGAR LAND     CLEAR     76  53  44 S12       29.99R
*HOUSTON EXEC  CLEAR     75  57  53 CALM      30.00R
*CLEVELAND MUN CLEAR     70  65  85 CALM      30.00S
*WHARTON       CLEAR     74  56  53 S10       30.01R
*COLUMBUS      FAIR      77  55  47 CALM      29.99R
*EAGLE LAKE    CLEAR     76  56  48 S3        29.99R
$$

TXZ214>216-236>238-070200-
THE UPPER TEXAS COAST

CITY           SKY/WX    TMP DP  RH WIND       PRES   REMARKS
*ORANGE        CLEAR     71  55  55 S5        30.02R
PORT ARTHUR    CLEAR     71  57  61 S6        30.00R
GALVESTON      CLEAR     73  57  57 S8        30.02S
ANGLETON       CLEAR     71  59  65 S5        30.01R
*BAY CITY      CLEAR     74  58  58 SE5       30.01R
PALACIOS       CLEAR     74  59  59 SE8       30.01R
$$

TXZ229>234-239>247-070200-
TEXAS COASTAL BEND AND RIO GRANDE PLAINS

CITY           SKY/WX    TMP DP  RH WIND       PRES   REMARKS
VICTORIA       CLEAR     74  60  61 SE9       29.99S
*BEEVILLE      CLEAR     79  57  48 SE9G18    29.98R
ROCKPORT       CLEAR     76  60  57 SE10      29.98S
*PORT ARANSAS  CLEAR     76  61  58 SE9       29.99R
*PORT LAVACA   CLEAR     73  63  68 SE7       30.00S
*INGLESIDE     CLEAR     75  58  55 SE9       29.99R
CORPUS CHRISTI CLEAR     78  56  46 E15G21    29.97F
CORPUS NAS     CLEAR     76  61  59 E14       29.98S
*ROBSTOWN      CLEAR     78  58  50 SE13      29.98R
ALICE          CLEAR     77  55  46 E12G20    29.96R
KINGSVILLE NAS CLEAR     77  60  55 SE10      29.97R
COTULLA        CLEAR     89  41  18 E14       29.91S
*FAITH RANCH     N/A    N/A N/A N/A MISG        N/A
LAREDO         CLEAR     90  44  20 SE16      29.90S
$$

TXZ248>255-070200-
DEEP SOUTH TEXAS

CITY           SKY/WX    TMP DP  RH WIND       PRES   REMARKS
BROWNSVILLE    CLEAR     76  64  66 SE8       29.98R
PORT ISABEL    CLEAR     77  68  73 E12       29.97R
*SOUTH PADRE     N/A     77  70  78 SE12      29.98R
HARLINGEN      CLEAR     80  61  52 SE10      29.96R
*HEBBRONVILLE  CLEAR     84  42  23 E16G23    29.96R
MCALLEN        CLEAR     84  54  35 SE15      29.95R
*WESLACO       CLEAR     82  55  39 SE7       29.95S
FALFURRIAS     CLEAR     81  47  31 E9G16     29.96R
EDINBURG       CLEAR     84  55  36 E12       29.95F
*ZAPATA        CLEAR     88  42  19 SE9G17    29.90S
$$

TXZ213>215-236>238-242>244-246-247-251-254-255-070200-
CMAN STATIONS

STATION/POSITION TIME  TEMP    WIND        PRES    WAVE
                       AIR SEA DIR/SP/G            HT/PER
                 (UTC) (F)     (DEG/KT/KT) (MB)    (FT/S)
SABINE PASS      0000   76 77              1017.3
SEA RIM ST PARK  0100   74     220/  9/ 11 1016.5
NORTH JETTY/GLS  0000   77 79                N/A
EAGLE POINT      0000   76 75              1015.8
MORGANS POINT    0000   78 72              1015.9
MISSION/ARANSAS  0000   78                 1016.0
PORT ARANSAS     0100   77 80  110/ 12/ 14 1016.6
MALAQUITE BEACH  0000   77 81              1015.5
BAFFIN BAY       0000   77 81              1015.1
PORT ISABEL      0000   80 80              1014.7
$$

GMZ080-GMZ150>470-070200-
OFFSHORE BUOY REPORTS

STATION/POSITION TIME  TEMP    WIND        PRES    WAVE
                       AIR SEA DIR/SP/G            HT/PER
                 (UTC) (F)     (DEG/KT/KT) (MB)    (FT/S)
20 E GALVESTON   0050   75 76  200/  8/ 10 1016.0    1
90 E PT ARANSAS  0050   76 76   90/  6/  8 1016.1    1/ 4
35 NE PT MANSFLD 0050   76 77  110/ 12/ 14 1015.0    1/19
200 E PT ISABEL  0050                        N/A     1/ 4
$$




USA.gov is the U.S. government's official web portal to all federal, state and local government web resources and services.